Tracking 30995 objects as of 7-Jul-2025
HD Live streaming from Space Station
objects crossing your sky now

STARLINK-3804

Track STARLINK-3804 now!
10-day predictions
STARLINK-3804 is classified as:


NORAD ID: 52270
Int'l Code: 2022-041K
Perigee: 545.9 km
Apogee: 547.8 km
Inclination: 53.2 °
Period: 95.4 minutes
Semi major axis: 6917 km
RCS: Unknown
Launch date: April 21, 2022
Source: United States (US)
Launch site: AIR FORCE EASTERN TEST RANGE (AFETR)
Your satellite tracking list
SL-8 R/B
Track 1 satellite(s)




NASA's NSSDC Master Catalog

Two Line Element Set (TLE):
1 52270U 22041K   25187.14062121 -.00000288  00000-0 -27388-7 0  9990
2 52270  53.2168 135.9510 0001396  92.7910 267.3242 15.08841880177143
Source of the keplerian elements: AFSPC